Location: Trois-Rivi�res
(46.3500°N, 72.5500°W)
Time: 00:52:41
(UTC-04:00)

Cosmos 1544 - Visible Passes

Search period start: 24 July 2017 00:00
Search period end: 03 August 2017 00:00
Orbit: 479 x 497 km, 82.5° (Epoch: 23 July)

Date Brightness Start Highest point End Pass type
(mag) Time Alt. Az. Time Alt. Az. Time Alt. Az.
24 Jul 3.8 04:14:01 10° S 04:17:39 55° E 04:21:18 10° NNE visible
25 Jul 4.6 03:50:42 10° SSE 03:54:05 35° E 03:57:31 10° NNE visible
26 Jul 5.2 03:27:34 10° SE 03:30:33 23° E 03:33:35 10° NE visible
27 Jul 5.8 03:04:46 10° SE 03:07:05 16° E 03:09:25 10° NE visible
27 Jul 3.8 04:38:27 10° SW 04:41:54 37° WNW 04:45:25 10° N visible
28 Jul 6.0 02:42:45 10° E 02:43:38 11° E 02:44:31 10° ENE visible
28 Jul 3.3 04:15:09 14° SSW 04:18:14 57° WNW 04:21:56 10° N visible
29 Jul 3.1 03:52:03 19° S 03:54:36 90° E 03:58:21 10° N visible
30 Jul 3.6 03:28:55 23° SSE 03:30:59 57° E 03:34:40 10° NNE visible
31 Jul 4.4 03:05:46 23° SE 03:07:26 36° E 03:10:53 10° NNE visible
31 Jul 5.0 04:40:13 10° WSW 04:42:44 17° WNW 04:45:15 10° NNW visible
01 Aug 5.0 02:42:35 20° ESE 02:43:53 24° E 02:46:56 10° NE visible
01 Aug 4.5 04:17:02 17° WSW 04:18:57 24° WNW 04:22:05 10° NNW visible
02 Aug 5.4 02:19:24 15° ESE 02:20:24 16° E 02:22:47 10° NE visible
02 Aug 3.9 03:53:51 26° WSW 03:55:14 36° WNW 03:58:44 10° N visible
